Weather in Ziyanchurino

Russia / Orenburg Oblast     51°33′42″N   56°54′30″E
temp.,
°C
wind,
m/s
gust,
m/s
humid.,
%
clouds,
%
prec.,
mm/h
press.,
hPa
HPBL,
m
15 may, sat
sat1523:00+18ene11440 0.0 102511
02:00+17e11460 0.0 102511
05:00+16e11480 0.0 102511
08:00+20e11460 0.0 102690
11:00+26sse22330 0.0 1025634
14:00+28s11230 0.0 10242243
17:00+28ne12210 0.0 10232437
20:00+23ne22390 0.0 102312
16 may, sun
sun1623:00+19ene22420 0.0 102311
02:00+18ene11480 0.0 102311
05:00+16e11563 0.0 102411
08:00+20e12555 0.0 1024114
11:00+26sse11380 0.0 1023617
14:00+29ssw13285 0.0 10222861
17:00+29s222873 0.0 10212634
20:00+21e225099 0.7 102115
17 may, mon
mon1723:00+19ene225090 0.8 102216
02:00+17ene21574 0.0 102211
05:00+16e11582 0.0 102211
08:00+21e115233 0.0 1023103
11:00+26sse33406 0.0 1023661
14:00+30s24265 0.0 10213017
17:00+30w34225 0.0 10203476
20:00+22ese33562 0.0 102056
18 may, tue
tue1823:00+19ese22535 0.0 102111
02:00+17ese22585 0.0 102112
05:00+16nne22605 0.0 102011
08:00+20e11545 0.0 1020115
11:00+26se12415 0.0 1019545
14:00+29sw01305 0.0 10182318
17:00+29n21256 0.0 10172906
20:00+23ene22564 0.0 101717
19 may, wed
wed1923:00+19ene22545 0.0 101711
02:00+18ene22575 0.0 101711
05:00+16ene116076 0.0 101711
08:00+20ene235889 0.0 1017177
11:00+25e3448100 0.0 1017646
14:00+28ese343784 0.0 10162047
17:00+29sse23315 0.0 10152558
20:00+25e224587 0.0 101524